KB2EAR-13 Weather Reports


Display with metric or nautical units.
time (UTC)temp
F
wind
direction
speed
MPH
gust
MPH
rain 1hr
in
rain 24hr
in
rain mn
in
humidity
%
barometer
mb
20260506231058 68 248 2.0 5.0 0.00 0.05 0.05 79 1008.2
20260506231018 68 248 2.0 5.0 0.00 0.05 0.05 79 1008.2
20260506230518 69 270 2.0 6.0 0.00 0.05 0.05 79 1008.3
20260506230017 69 248 1.0 4.0 0.00 0.05 0.05 79 1007.9
20260506225624 68 270 1.0 4.0 0.00 0.05 0.05 80 1008.0
20260506225518 68 270 1.0 4.0 0.00 0.05 0.05 80 1008.0
20260506225017 68 270 2.0 7.0 0.00 0.05 0.05 80 1008.2
20260506224518 68 248 2.0 5.0 0.00 0.05 0.05 80
20260506224017 67 270 2.0 5.0 0.00 0.05 0.05 80
20260506223551 67 248 1.0 4.0 0.00 0.05 0.05 81
20260506223518 67 248 1.0 4.0 0.00 0.05 0.05 81
20260506223018 67 248 1.0 5.0 0.00 0.05 0.05 81
20260506222518 67 248 1.0 6.0 0.00 0.05 0.05 81
20260506222018 67 248 1.0 4.0 0.00 0.05 0.05 82
20260506221552 67 248 1.0 5.0 0.00 0.05 0.05 81 1008.3
20260506221518 67 248 1.0 5.0 0.00 0.05 0.05 81 1008.3
20260506221018 67 248 1.0 3.0 0.00 0.05 0.05 82 1008.3
20260506220900 67 0.0 3.0 0.00 0.05 0.05 81 1008.2
20260506220517 67 0.0 3.0 0.00 0.05 0.05 81 1008.2
20260506220148 67 270 1.0 2.0 0.00 0.05 0.05 82 1008.1
20260506220038 67 248 2.0 5.0 0.00 0.05 0.05 82 1008.1
20260506215518 67 248 2.0 5.0 0.00 0.05 0.05 82 1008.1
20260506215017 67 248 2.0 6.0 0.00 0.05 0.05 82 1008.1
20260506214517 66 248 2.0 5.0 0.00 0.05 0.05 82 1008.1
20260506214017 66 270 1.0 5.0 0.00 0.05 0.05 83 1008.1
20260506213517 66 270 1.0 5.0 0.00 0.05 0.05 83 1008.0
20260506213018 66 248 2.0 6.0 0.00 0.05 0.05 83 1008.1
20260506212518 66 248 1.0 4.0 0.00 0.05 0.05 83 1008.0
20260506212500 66 270 1.0 5.0 0.00 0.05 0.05 83 1008.1
20260506212018 66 270 1.0 5.0 0.00 0.05 0.05 83 1008.1
20260506211517 66 270 1.0 7.0 0.00 0.05 0.05 83 1008.0
20260506211017 66 270 1.0 4.0 0.00 0.05 0.05 83 1007.9
20260506210517 66 270 2.0 9.0 0.00 0.05 0.05 83 1007.9
20260506210017 66 248 1.0 4.0 0.00 0.05 0.05 83 1007.7
20260506205517 66 248 1.0 5.0 0.00 0.05 0.05 83 1007.7
20260506205018 66 270 2.0 8.0 0.00 0.05 0.05 84 1007.6
20260506204518 66 248 2.0 6.0 0.00 0.05 0.05 83 1007.6
20260506204017 66 270 2.0 8.0 0.00 0.05 0.05 84 1007.6
20260506203746 66 270 1.0 9.0 0.00 0.05 0.05 84 1007.5
20260506203517 66 270 1.0 9.0 0.00 0.05 0.05 84 1007.5
20260506203018 65 270 2.0 6.0 0.00 0.05 0.05 85 1007.6
20260506202517 65 248 2.0 6.0 0.00 0.05 0.05 84 1007.5
20260506202017 65 270 2.0 8.0 0.00 0.05 0.05 85 1007.6
20260506201517 65 270 3.0 8.0 0.00 0.05 0.05 85 1007.7
20260506201333 64 293 2.0 10.0 0.00 0.05 0.05 85 1007.7
20260506201017 64 293 2.0 10.0 0.00 0.05 0.05 85 1007.7
20260506200517 64 270 2.0 7.0 0.00 0.05 0.05 86 1007.8
20260506200017 64 248 2.0 7.0 0.00 0.05 0.05 87 1007.8
20260506195517 64 270 2.0 6.0 0.00 0.05 0.05 87 1007.9
20260506195017 63 270 1.0 6.0 0.00 0.05 0.05 89 1007.9
20260506194517 63 270 1.0 3.0 0.00 0.05 0.05 89 1008.0
20260506194018 63 270 3.0 7.0 0.00 0.05 0.05 90 1008.1
20260506193517 63 270 2.0 9.0 0.00 0.05 0.05 90 1008.2
20260506193017 63 248 2.0 9.0 0.00 0.05 0.05 89 1008.2
20260506192517 63 248 2.0 6.0 0.00 0.05 0.05 89 1008.3
20260506192017 64 270 3.0 7.0 0.00 0.05 0.05 87 1008.4
20260506191517 64 270 4.0 11.0 0.00 0.05 0.05 85 1008.4
20260506191017 64 270 4.0 15.0 0.01 0.05 0.05 84 1008.5
20260506190517 64 270 5.0 14.0 0.01 0.05 0.05 85 1008.4
20260506190018 64 270 2.0 12.0 0.01 0.05 0.05 86 1008.3
20260506185519 63 270 2.0 5.0 0.01 0.05 0.05 87 1008.3
20260506185517 63 270 2.0 5.0 0.01 0.05 0.05 87 1008.2
20260506185018 63 270 2.0 5.0 0.01 0.05 0.05 87 1008.3
20260506184517 63 270 1.0 7.0 0.01 0.05 0.05 88 1008.3
20260506184017 63 270 3.0 9.0 0.01 0.05 0.05 88 1008.4
20260506183517 63 248 3.0 8.0 0.01 0.05 0.05 89 1008.3
20260506183017 63 248 2.0 6.0 0.01 0.05 0.05 89 1008.3
20260506182517 63 270 2.0 7.0 0.01 0.05 0.05 89 1008.4
20260506182017 64 270 3.0 9.0 0.01 0.05 0.05 88 1008.5
20260506181517 64 248 3.0 9.0 0.01 0.05 0.05 87 1008.5
20260506181017 65 270 5.0 13.0 0.00 0.04 0.04 85 1008.7
20260506180517 65 248 4.0 9.0 0.00 0.04 0.04 83 1008.6
20260506180017 66 248 4.0 12.0 0.00 0.04 0.04 82 1008.8
20260506175517 66 270 6.0 13.0 0.00 0.04 0.04 82 1008.8
20260506175017 66 248 3.0 8.0 0.00 0.04 0.04 83 1008.8
20260506174517 65 248 3.0 6.0 0.01 0.04 0.04 85 1008.9
20260506174017 65 270 2.0 6.0 0.01 0.04 0.04 86 1009.0
20260506173517 65 248 3.0 8.0 0.01 0.04 0.04 86 1008.8
20260506173017 65 248 2.0 6.0 0.01 0.04 0.04 87 1008.7
20260506172517 65 270 1.0 3.0 0.02 0.04 0.04 88 1008.4
20260506172017 65 270 1.0 4.0 0.02 0.04 0.04 88 1008.4
20260506171517 65 248 2.0 6.0 0.02 0.04 0.04 87 1008.5
20260506171017 65 248 1.0 4.0 0.02 0.04 0.04 88 1008.5
20260506170517 65 248 1.0 4.0 0.03 0.04 0.04 89 1008.6
20260506170017 64 0.0 2.0 0.03 0.04 0.04 89 1008.7
20260506165517 64 248 1.0 3.0 0.03 0.04 0.04 89 1008.7
20260506165017 64 225 1.0 4.0 0.04 0.04 0.04 88 1008.9
20260506164517 64 0.0 2.0 0.03 0.03 0.03 88 1009.2
20260506164017 64 0.0 2.0 0.03 0.03 0.03 88 1009.6
20260506163517 64 248 1.0 3.0 0.03 0.03 0.03 87 1009.8
20260506163017 64 270 1.0 3.0 0.03 0.03 0.03 87 1010.0
20260506162517 64 0.0 3.0 0.02 0.02 0.02 86 1010.0
20260506162017 64 270 1.0 3.0 0.02 0.02 0.02 85 1010.2
20260506161517 64 248 1.0 3.0 0.02 0.02 0.02 84 1010.2
20260506161017 65 270 2.0 6.0 0.02 0.02 0.02 82 1010.3
20260506160517 65 248 1.0 4.0 0.01 0.01 0.01 81 1010.2
20260506160151 66 248 3.0 8.0 0.01 0.01 0.01 80 1010.5
20260506160037 66 270 3.0 9.0 0.01 0.01 0.01 78 1010.5
20260506155517 66 270 3.0 9.0 0.01 0.01 0.01 78 1010.5
20260506155017 67 248 2.0 8.0 0.00 0.00 0.00 76 1010.3
20260506154517 68 248 2.0 7.0 0.00 0.00 0.00 74 1010.2
20260506154017 68 248 2.0 8.0 0.00 0.00 0.00 74 1010.3
20260506153517 68 270 2.0 8.0 0.00 0.00 0.00 72 1010.2
20260506153017 68 248 4.0 11.0 0.00 0.00 0.00 72 1010.2
20260506152931 69 270 2.0 6.0 0.00 0.00 0.00 71 1010.3
20260506152517 69 248 3.0 12.0 0.00 0.00 0.00 72 1010.2
20260506152017 69 270 2.0 6.0 0.00 0.00 0.00 71 1010.3
20260506151853 68 248 4.0 9.0 0.00 0.00 0.00 70 1010.0
20260506151517 69 248 2.0 6.0 0.00 0.00 0.00 70 1010.2
20260506151259 68 248 4.0 9.0 0.00 0.00 0.00 69 1010.1
20260506151017 68 248 4.0 9.0 0.00 0.00 0.00 70 1010.0
20260506150552 69 270 4.0 10.0 0.00 0.00 0.00 69 1010.3
20260506150517 68 248 4.0 9.0 0.00 0.00 0.00 69 1010.1
20260506150117 69 270 4.0 11.0 0.00 0.00 0.00 69 1010.3
20260506150017 69 270 4.0 10.0 0.00 0.00 0.00 69 1010.3
20260506145517 69 270 4.0 11.0 0.00 0.00 0.00 69 1010.3
20260506145058 69 270 4.0 11.0 0.00 0.00 0.00 67 1010.3
20260506145017 69 270 5.0 9.0 0.00 0.00 0.00 68 1010.4
20260506144517 69 248 5.0 12.0 0.00 0.00 0.00 68 1010.4
20260506144017 69 270 4.0 11.0 0.00 0.00 0.00 67 1010.3
20260506143517 69 270 4.0 13.0 0.00 0.00 0.00 68 1010.2
20260506143017 69 270 3.0 8.0 0.00 0.00 0.00 68 1010.3
20260506142517 69 248 5.0 9.0 0.00 0.00 0.00 68 1010.2
20260506142017 69 270 5.0 16.0 0.00 0.00 0.00 68 1010.2
20260506141517 69 248 4.0 13.0 0.00 0.00 0.00 69 1010.3
20260506141017 69 270 4.0 9.0 0.00 0.00 0.00 69 1010.2
20260506140517 69 248 7.0 24.0 0.00 0.00 0.00 69 1010.1
20260506140017 68 248 5.0 14.0 0.00 0.00 0.00 70 1010.2
20260506135517 68 270 3.0 8.0 0.00 0.00 0.00 70 1010.1
20260506135017 68 270 4.0 11.0 0.00 0.00 0.00 69 1010.1
20260506134517 69 270 4.0 17.0 0.00 0.00 0.00 70 1010.0
20260506134017 69 248 6.0 17.0 0.00 0.00 0.00 69 1010.0
20260506133517 69 248 5.0 10.0 0.00 0.00 0.00 69 1010.4
20260506133017 69 270 4.0 8.0 0.00 0.00 0.00 69 1010.5
20260506132517 69 248 6.0 15.0 0.00 0.00 0.00 70 1010.4
20260506132017 69 270 4.0 16.0 0.00 0.00 0.00 70 1010.4
20260506131517 68 270 3.0 8.0 0.00 0.00 0.00 70 1010.5
20260506131017 68 248 3.0 9.0 0.00 0.00 0.00 71 1010.3
20260506130517 68 248 5.0 12.0 0.00 0.00 0.00 71 1010.3
20260506130017 67 270 5.0 14.0 0.00 0.00 0.00 71 1010.5
20260506125517 67 270 5.0 14.0 0.00 0.00 0.00 71 1010.3
20260506125322 67 270 5.0 10.0 0.00 0.00 0.00 72 1010.3
20260506125017 67 270 5.0 10.0 0.00 0.00 0.00 72 1010.3
20260506124517 67 270 4.0 12.0 0.00 0.00 0.00 72 1010.2
20260506124330 67 270 4.0 11.0 0.00 0.00 0.00 73 1010.2
20260506124017 67 270 4.0 11.0 0.00 0.00 0.00 73 1010.2
20260506123517 66 248 5.0 11.0 0.00 0.00 0.00 74 1010.1
20260506123017 66 270 4.0 12.0 0.00 0.00 0.00 74 1010.3
20260506122517 66 270 3.0 10.0 0.00 0.00 0.00 74 1010.3
20260506122017 66 248 4.0 9.0 0.00 0.00 0.00 74 1010.3
20260506121517 66 248 4.0 10.0 0.00 0.00 0.00 75 1010.3
20260506121016 66 248 4.0 10.0 0.00 0.00 0.00 74 1010.3
20260506120517 66 270 4.0 16.0 0.00 0.00 0.00 74 1010.4
20260506120017 66 248 5.0 13.0 0.00 0.00 0.00 75 1010.4
20260506115517 66 270 3.0 9.0 0.00 0.00 0.00 75 1010.4
20260506115017 66 270 3.0 11.0 0.00 0.00 0.00 75 1010.5
20260506114517 66 270 3.0 10.0 0.00 0.00 0.00 75 1010.8
20260506114016 65 248 5.0 11.0 0.00 0.00 0.00 75 1010.8
20260506113517 65 248 4.0 8.0 0.00 0.00 0.00 76 1010.7
20260506113017 65 248 3.0 10.0 0.00 0.00 0.00 76 1010.6
20260506112517 65 248 2.0 9.0 0.00 0.00 0.00 77 1010.7
20260506112017 65 248 3.0 7.0 0.00 0.00 0.00 78 1010.6
20260506111517 64 248 4.0 10.0 0.00 0.00 0.00 78 1010.6
20260506111017 64 248 3.0 10.0 0.00 0.00 0.00 78 1010.7
20260506110517 64 248 3.0 11.0 0.00 0.00 0.00 78 1010.6
20260506110016 64 248 2.0 5.0 0.00 0.00 0.00 79 1010.6
20260506105516 64 248 3.0 11.0 0.00 0.00 0.00 79 1010.3
20260506105016 64 248 3.0 12.0 0.00 0.00 0.00 79 1010.5
20260506104517 0 0.0 0.0 0.00 0.00 0.00
20260506104017 0 0.0 0.0 0.00 0.00 0.00
20260506103517 0 0.0 0.0 0.00 0.00 0.00
20260506103024 0 0.0 0.0 0.00 0.00 0.00
20260506102517 0 0.0 0.0 0.00 0.00 0.00
20260506102016 0 0.0 0.0 0.00 0.00 0.00
20260506101517 0 0.0 0.0 0.00 0.00 0.00
20260506101016 0 0.0 0.0 0.00 0.00 0.00
20260506100555 0 0.0 0.0 0.00 0.00 0.00
20260506100516 0 0.0 0.0 0.00 0.00 0.00
20260506100149 0 0.0 0.0 0.00 0.00 0.00
20260506100038 0 0.0 0.0 0.00 0.00 0.00
20260506095543 0 0.0 0.0 0.00 0.00 0.00
20260506095535 64 248 3.0 8.0 0.00 0.00 0.00
20260506095024 64 248 3.0 8.0 0.00 0.00 0.00
20260506094516 64 248 3.0 10.0 0.00 0.00 0.00 80 1010.0
20260506094016 64 248 3.0 9.0 0.00 0.00 0.00 80 1010.1
20260506093516 64 248 2.0 8.0 0.00 0.00 0.00 80 1010.1
20260506093017 64 248 2.0 5.0 0.00 0.00 0.00 80 1010.1
20260506092516 64 248 3.0 11.0 0.00 0.00 0.00 80 1010.2
20260506092016 64 248 2.0 9.0 0.00 0.00 0.00 80 1010.1
20260506091517 64 248 3.0 8.0 0.00 0.00 0.00 80 1010.2
20260506091016 64 248 3.0 10.0 0.00 0.00 0.00 80 1010.3
20260506090516 64 248 3.0 11.0 0.00 0.00 0.00 79 1010.3
20260506090016 64 248 4.0 12.0 0.00 0.00 0.00 79 1010.4
20260506085517 64 248 3.0 10.0 0.00 0.00 0.00 79 1010.3
20260506085016 64 248 4.0 9.0 0.00 0.00 0.00 79 1010.3
20260506084517 64 248 3.0 9.0 0.00 0.00 0.00 79 1010.4
20260506084017 65 248 3.0 11.0 0.00 0.00 0.00 79 1010.4
20260506083517 65 248 3.0 12.0 0.00 0.00 0.00 79 1010.4
20260506083017 65 248 3.0 11.0 0.00 0.00 0.00 79 1010.3
20260506082516 65 248 3.0 10.0 0.00 0.00 0.00 79 1010.3
20260506082017 65 248 3.0 10.0 0.00 0.00 0.00 79 1010.4
20260506081516 65 248 3.0 9.0 0.00 0.00 0.00 79 1010.5
20260506081016 65 225 3.0 8.0 0.00 0.00 0.00 79 1010.5
20260506080516 65 248 3.0 7.0 0.00 0.00 0.00 79 1010.5
20260506073516 65 248 2.0 8.0 0.00 0.00 0.00 78 1010.4
20260506073016 65 225 1.0 5.0 0.00 0.00 0.00 77 1010.5
20260506072516 65 248 3.0 8.0 0.00 0.00 0.00 77 1010.6
20260506072016 66 248 2.0 6.0 0.00 0.00 0.00 77 1010.5
20260506071516 66 248 3.0 8.0 0.00 0.00 0.00 77 1010.6
20260506071016 66 248 2.0 9.0 0.00 0.00 0.00 76 1010.6
20260506070516 66 248 4.0 9.0 0.00 0.00 0.00 76 1010.7
20260506062516 66 248 3.0 7.0 0.00 0.00 0.00 75 1010.9
20260506062016 66 248 2.0 8.0 0.00 0.00 0.00 74 1010.8
20260506061516 67 270 3.0 7.0 0.00 0.00 0.00 74 1010.9
20260506061016 67 248 3.0 6.0 0.00 0.00 0.00 74 1010.9
20260506060516 67 270 2.0 7.0 0.00 0.00 0.00 74 1010.7
20260506051016 67 248 2.0 9.0 0.00 0.00 0.00 70 1011.4
20260506050516 67 248 3.0 9.0 0.00 0.00 0.00 70 1011.6
20260506045016 68 248 2.0 7.0 0.00 0.00 0.00 69 1011.6
20260506044516 68 248 2.0 10.0 0.00 0.00 0.00 69 1011.4
20260506044016 68 248 2.0 6.0 0.00 0.00 0.00 69 1011.6
20260506043516 68 248 3.0 6.0 0.00 0.00 0.00 69 1011.6
20260506043050 68 248 3.0 9.0 0.00 0.00 0.00 69 1011.5
20260506043030 68 248 2.0 6.0 0.00 0.00 0.00 69 1011.6
20260506043016 68 248 3.0 9.0 0.00 0.00 0.00 69 1011.5
20260506042516 68 248 2.0 6.0 0.00 0.00 0.00 69 1011.6
20260506042016 67 248 3.0 10.0 0.00 0.00 0.00 69 1011.6
20260506041516 67 248 2.0 7.0 0.00 0.00 0.00 69 1011.5
20260506041016 67 270 1.0 4.0 0.00 0.00 0.00 69 1011.5
20260506040516 67 248 2.0 6.0 0.00 0.00 0.00 69 1011.4
20260506040151 67 248 3.0 10.0 0.00 0.00 0.00 68 1011.5
20260506040034 67 248 1.0 6.0 0.00 0.00 0.00 68 1011.4
20260506035516 67 248 1.0 6.0 0.00 0.00 0.00 68 1011.4
20260506035016 67 248 2.0 5.0 0.00 0.00 0.00 68 1011.4
20260506034516 67 248 1.0 8.0 0.00 0.00 0.00 68 1011.4
20260506034016 67 248 1.0 5.0 0.00 0.00 0.00 67 1011.4
20260506033602 67 248 1.0 5.0 0.00 0.00 0.00 67 1011.5
20260506033600 68 248 2.0 7.0 0.00 0.00 0.00 67 1011.5
20260506033516 67 248 1.0 5.0 0.00 0.00 0.00 67 1011.5
20260506033016 68 248 2.0 7.0 0.00 0.00 0.00 67 1011.5
20260506032516 68 248 2.0 8.0 0.00 0.00 0.00 66 1011.5
20260506032016 68 248 1.0 5.0 0.00 0.00 0.00 66 1011.4
20260506031516 68 248 2.0 11.0 0.00 0.00 0.00 66 1011.5
20260506031235 68 248 1.0 4.0 0.00 0.00 0.00 65 1011.4
20260506031016 68 248 1.0 4.0 0.00 0.00 0.00 65 1011.4
20260506030516 68 248 1.0 5.0 0.00 0.00 0.00 65 1011.5
20260506030016 68 248 2.0 8.0 0.00 0.00 0.00 65 1011.5
20260506025516 68 225 1.0 6.0 0.00 0.00 0.00 64 1011.4
20260506025016 68 248 2.0 8.0 0.00 0.00 0.00 64 1011.4
20260506024516 69 248 2.0 9.0 0.00 0.00 0.00 64 1011.4
20260506024016 69 248 2.0 7.0 0.00 0.00 0.00 64 1011.4
20260506023518 69 225 2.0 6.0 0.00 0.00 0.00 64 1011.4
20260506023018 69 248 1.0 6.0 0.00 0.00 0.00 63 1011.5
20260506022518 69 248 1.0 7.0 0.00 0.00 0.00 63 1011.4
20260506022018 69 248 2.0 8.0 0.00 0.00 0.00 63 1011.4
20260506021518 70 248 2.0 7.0 0.00 0.00 0.00 63 1011.4
20260506021018 70 248 2.0 7.0 0.00 0.00 0.00 62 1011.5
20260506020518 70 248 2.0 8.0 0.00 0.00 0.00 62 1011.4
20260506020018 70 225 2.0 6.0 0.00 0.00 0.00 61 1011.4
20260506015518 71 248 2.0 8.0 0.00 0.00 0.00 61 1011.4
20260506015018 71 248 2.0 5.0 0.00 0.00 0.00 60 1011.4
20260506014518 71 248 2.0 10.0 0.00 0.00 0.00 59 1011.2
20260506014018 72 248 2.0 8.0 0.00 0.00 0.00 59 1011.3
20260506013518 72 248 2.0 9.0 0.00 0.00 0.00 58 1011.1
20260506013018 72 248 3.0 13.0 0.00 0.00 0.00 57 1011.1
20260506012518 72 248 2.0 10.0 0.00 0.00 0.00 57 1011.1
20260506012017 73 248 3.0 9.0 0.00 0.00 0.00 56 1011.0
20260506011518 73 248 4.0 13.0 0.00 0.00 0.00 55 1011.0
20260506011018 73 248 5.0 13.0 0.00 0.00 0.00 55 1010.9
20260506010518 73 248 5.0 12.0 0.00 0.00 0.00 54 1010.8
20260506010018 74 248 4.0 14.0 0.00 0.00 0.00 53 1010.9
20260506005517 74 248 4.0 8.0 0.00 0.00 0.00 52 1010.7
20260506005018 74 248 5.0 15.0 0.00 0.00 0.00 51 1010.7
20260506004518 75 248 4.0 10.0 0.00 0.00 0.00 50 1010.6
20260506004018 75 248 5.0 14.0 0.00 0.00 0.00 49 1010.6
20260506003517 75 248 2.0 6.0 0.00 0.00 0.00 48 1010.5
20260506003017 76 248 5.0 12.0 0.00 0.00 0.00 47 1010.4
20260506002518 76 248 5.0 12.0 0.00 0.00 0.00 46 1010.3
20260506002103 76 248 3.0 10.0 0.00 0.00 0.00 45 1010.2
20260506002018 76 248 3.0 10.0 0.00 0.00 0.00 45 1010.2
20260506001518 76 248 2.0 6.0 0.00 0.00 0.00 45 1010.3
20260506001129 77 248 3.0 11.0 0.00 0.00 0.00 44 1010.2
20260506001018 77 248 3.0 11.0 0.00 0.00 0.00 44 1010.2
20260506000517 77 248 2.0 5.0 0.00 0.00 0.00 45 1010.0
20260506000018 77 248 3.0 9.0 0.00 0.00 0.00 44 1010.1
20260505235518 77 248 4.0 12.0 0.00 0.00 0.00 44 1010.1
20260505235018 77 248 4.0 9.0 0.00 0.00 0.00 44 1010.0
20260505234518 78 270 3.0 10.0 0.00 0.00 0.00 43 1010.0
20260505234017 78 248 4.0 11.0 0.00 0.00 0.00 43 1010.1
20260505233518 78 248 2.0 7.0 0.00 0.00 0.00 43 1009.9
20260505233017 79 248 4.0 10.0 0.00 0.00 0.00 42 1009.8
20260505232600 79 270 4.0 10.0 0.00 0.00 0.00 42 1009.7
20260505232517 79 270 4.0 10.0 0.00 0.00 0.00 42 1009.7
20260505232104 79 270 6.0 13.0 0.00 0.00 0.00 41 1009.6
20260505232018 79 270 6.0 13.0 0.00 0.00 0.00 41 1009.6
20260505231753 80 270 4.0 16.0 0.00 0.00 0.00 39 1009.5
20260505231518 80 270 4.0 14.0 0.00 0.00 0.00 40 1009.6